,,PA_Meas_PMT16A,,PR_Meas_QMR101_102,,RH_Meas_QMH101,,SR_Meas_QMS101,,TA_Meas_QMH101,,GenWind,,GenWind,
time,status,PA,status,PR,status,RH,status,SR,status,TA,status,DirAvg,status,SpdAvg,
2010-06-04, 00:00:04,VALID,918.839,VALID,0,VALID,97.3586,VALID,0.107441,VALID,21.0259,VALID,7,VALID,0.738672,
2010-06-04, 00:01:04,VALID,918.836,VALID,0,VALID,97.351,VALID,0.107441,VALID,21.0665,VALID,7,VALID,0.110156,
2010-06-04, 00:02:04,VALID,918.777,VALID,0,VALID,97.3739,VALID,0.107441,VALID,21.0665,VALID,7,VALID,0.697266,
2010-06-04, 00:03:04,VALID,918.821,VALID,0,VALID,97.3891,VALID,0,VALID,21.0665,VALID,7,VALID,0.423828,
2010-06-04, 00:04:04,VALID,918.831,VALID,0,VALID,97.3663,VALID,0.107441,VALID,21.086,VALID,7,VALID,0.23125,
2010-06-04, 00:05:04,VALID,918.826,VALID,0,VALID,97.3739,VALID,0,VALID,21.0649,VALID,7,VALID,0.317578,
2010-06-04, 00:06:04,VALID,918.872,VALID,0,VALID,97.3586,VALID,0.107441,VALID,21.0454,VALID,7,VALID,0.500391,
2010-06-04, 00:07:04,VALID,918.847,VALID,0,VALID,97.3434,VALID,0.107441,VALID,21.047,VALID,7,VALID,0.186719,
2010-06-04, 00:08:04,VALID,918.834,VALID,0,VALID,97.3586,VALID,0.107441,VALID,21.0259,VALID,7,VALID,0.290234,
2010-06-04, 00:09:04,VALID,918.865,VALID,0,VALID,97.3739,VALID,0.107441,VALID,21.0259,VALID,7,VALID,0.251953,
2010-06-04, 00:10:04,VALID,918.84,VALID,0,VALID,97.3815,VALID,0.107441,VALID,21.0665,VALID,7,VALID,0.432813,
2010-06-04, 00:11:04,VALID,918.836,VALID,0,VALID,97.3815,VALID,0.107441,VALID,21.0259,VALID,7,VALID,0.600781,
2010-06-04, 00:12:04,VALID,918.815,VALID,0,VALID,97.3891,VALID,0.107441,VALID,21.008,VALID,7,VALID,1.17031,
2010-06-04, 00:13:04,VALID,918.826,VALID,0,VALID,97.3739,VALID,0.214882,VALID,21.0259,VALID,7,VALID,0.691406,
2010-06-04, 00:14:04,VALID,918.84,VALID,0,VALID,97.3739,VALID,0.107441,VALID,21.0064,VALID,2,VALID,1.16914,
2010-06-04, 00:15:04,VALID,918.862,VALID,0,VALID,97.3815,VALID,0.107441,VALID,20.9674,VALID,352,VALID,0.489062,
2010-06-04, 00:16:04,VALID,918.825,VALID,0,VALID,97.3891,VALID,0.107441,VALID,20.9495,VALID,352,VALID,0.498047,
2010-06-04, 00:17:04,VALID,918.859,VALID,0,VALID,97.4044,VALID,0.107441,VALID,20.9105,VALID,352,VALID,0.241406,
2010-06-04, 00:18:04,VALID,918.811,VALID,0,VALID,97.3739,VALID,0,VALID,20.8894,VALID,352,VALID,0,
2010-06-04, 00:19:04,VALID,918.836,VALID,0,VALID,97.3968,VALID,0,VALID,20.9105,VALID,352,VALID,0,
2010-06-04, 00:20:04,VALID,918.824,VALID,0,VALID,97.4044,VALID,0,VALID,20.93,VALID,352,VALID,0.141016,
2010-06-04, 00:21:04,VALID,918.817,VALID,0,VALID,97.3968,VALID,0,VALID,20.93,VALID,352,VALID,0.621094,
2010-06-04, 00:22:04,VALID,918.799,VALID,0,VALID,97.3815,VALID,0.107441,VALID,20.9105,VALID,352,VALID,0.751172,
2010-06-04, 00:23:04,VALID,918.786,VALID,0,VALID,97.3968,VALID,0,VALID,20.9105,VALID,352,VALID,0.491797,
2010-06-04, 00:24:04,VALID,918.816,VALID,0,VALID,97.4044,VALID,0,VALID,20.8699,VALID,352,VALID,0.763672,
2010-06-04, 00:25:04,VALID,918.805,VALID,0,VALID,97.4044,VALID,0,VALID,20.8714,VALID,352,VALID,0.790625,
2010-06-04, 00:26:04,VALID,918.793,VALID,0,VALID,97.3968,VALID,0,VALID,20.8714,VALID,352,VALID,0.743359,
2010-06-04, 00:27:04,VALID,918.775,VALID,0,VALID,97.4196,VALID,0,VALID,20.8714,VALID,352,VALID,0.524609,
2010-06-04, 00:28:04,VALID,918.789,VALID,0,VALID,97.3891,VALID,0,VALID,20.8925,VALID,352,VALID,0.830859,
2010-06-04, 00:29:04,VALID,918.766,VALID,0,VALID,97.412,VALID,0,VALID,20.9105,VALID,352,VALID,0.730859,
2010-06-04, 00:30:04,VALID,918.798,VALID,0,VALID,97.412,VALID,0,VALID,20.8714,VALID,352,VALID,0.766016,
2010-06-04, 00:31:04,VALID,918.752,VALID,0,VALID,97.4196,VALID,0.107441,VALID,20.891,VALID,352,VALID,0.630469,
2010-06-04, 00:32:04,VALID,918.732,VALID,0,VALID,97.412,VALID,0,VALID,20.891,VALID,352,VALID,0.586328,
2010-06-04, 00:33:04,VALID,918.752,VALID,0,VALID,97.4044,VALID,0,VALID,20.891,VALID,352,VALID,0.797656,
2010-06-04, 00:34:04,VALID,918.712,VALID,0,VALID,97.4196,VALID,0.107441,VALID,20.8925,VALID,352,VALID,0.798437,
2010-06-04, 00:35:04,VALID,918.719,VALID,0,VALID,97.412,VALID,0,VALID,20.8714,VALID,352,VALID,0.810938,
2010-06-04, 00:36:04,VALID,918.686,VALID,0,VALID,97.4196,VALID,0,VALID,20.8519,VALID,352,VALID,0.764844,
2010-06-04, 00:37:04,VALID,918.677,VALID,0,VALID,97.412,VALID,0,VALID,20.8714,VALID,352,VALID,0.972266,
2010-06-04, 00:38:04,VALID,918.653,VALID,0,VALID,97.4044,VALID,0,VALID,20.891,VALID,352,VALID,0.650391,
2010-06-04, 00:39:04,VALID,918.65,VALID,0,VALID,97.4196,VALID,0,VALID,20.8714,VALID,352,VALID,0.673047,
2010-06-04, 00:40:04,VALID,918.61,VALID,0,VALID,97.412,VALID,0,VALID,20.8714,VALID,352,VALID,0.68125,
2010-06-04, 00:41:04,VALID,918.595,VALID,0,VALID,97.4273,VALID,0,VALID,20.8714,VALID,352,VALID,0.845703,
2010-06-04, 00:42:04,VALID,918.584,VALID,0,VALID,97.412,VALID,0,VALID,20.873,VALID,352,VALID,0.935547,
2010-06-04, 00:43:04,VALID,918.543,VALID,0,VALID,97.4196,VALID,0,VALID,20.8519,VALID,352,VALID,1.03086,
2010-06-04, 00:44:04,VALID,918.508,VALID,0,VALID,97.4349,VALID,0,VALID,20.8324,VALID,352,VALID,0.610547,
2010-06-04, 00:45:04,VALID,918.463,VALID,0,VALID,97.4196,VALID,0,VALID,20.8714,VALID,352,VALID,0.46875,
2010-06-04, 00:46:04,VALID,918.426,VALID,0,VALID,97.4196,VALID,0,VALID,20.8324,VALID,352,VALID,0.367188,
2010-06-04, 00:47:04,VALID,918.42,VALID,0,VALID,97.4196,VALID,0,VALID,20.8129,VALID,352,VALID,0.296875,
2010-06-04, 00:48:04,VALID,918.404,VALID,0,VALID,97.4349,VALID,0,VALID,20.873,VALID,352,VALID,0.459375,
2010-06-04, 00:49:04,VALID,918.384,VALID,0,VALID,97.4425,VALID,0,VALID,20.7934,VALID,352,VALID,1.11016,
2010-06-04, 00:50:04,VALID,918.364,VALID,0,VALID,97.4425,VALID,0.107441,VALID,20.7739,VALID,352,VALID,0.700391,
2010-06-04, 00:51:04,VALID,918.403,VALID,0,VALID,97.4349,VALID,0,VALID,20.7544,VALID,352,VALID,1.10977,
2010-06-04, 00:52:04,VALID,918.398,VALID,0,VALID,97.4349,VALID,0.107441,VALID,20.7544,VALID,352,VALID,0.701953,
2010-06-04, 00:53:04,VALID,918.388,VALID,0,VALID,97.4273,VALID,0.107441,VALID,20.7544,VALID,116,VALID,1.13398,
2010-06-04, 00:54:04,VALID,918.418,VALID,0,VALID,97.4425,VALID,0,VALID,20.7739,VALID,46,VALID,0.847266,
2010-06-04, 00:55:04,VALID,918.41,VALID,0,VALID,97.4501,VALID,0.107441,VALID,20.7739,VALID,46,VALID,0.673437,
2010-06-04, 00:56:04,VALID,918.434,VALID,0,VALID,97.4273,VALID,0,VALID,20.7739,VALID,46,VALID,0.759375,
2010-06-04, 00:57:04,VALID,918.431,VALID,0,VALID,97.4501,VALID,0,VALID,20.7528,VALID,46,VALID,0.570313,
2010-06-04, 00:58:04,VALID,918.453,VALID,0,VALID,97.4577,VALID,0.107441,VALID,20.7739,VALID,145,VALID,0.701953,
2010-06-04, 00:59:04,VALID,918.45,VALID,0,VALID,97.4577,VALID,0.107441,VALID,20.7544,VALID,145,VALID,0.495703,
2010-06-04, 01:00:04,VALID,918.43,VALID,0,VALID,97.4654,VALID,0,VALID,20.7349,VALID,190,VALID,1.57461,
2010-06-04, 01:01:04,VALID,918.428,VALID,0,VALID,97.4654,VALID,0,VALID,20.7349,VALID,191,VALID,1.18984,
2010-06-04, 01:02:04,VALID,918.427,VALID,0,VALID,97.4425,VALID,0,VALID,20.7755,VALID,188,VALID,0.616797,
2010-06-04, 01:03:04,VALID,918.443,VALID,0,VALID,97.4273,VALID,0,VALID,20.7739,VALID,188,VALID,1.16641,
2010-06-04, 01:04:04,VALID,918.491,VALID,0,VALID,97.4577,VALID,0,VALID,20.7934,VALID,188,VALID,1.21797,
2010-06-04, 01:05:04,VALID,918.508,VALID,0,VALID,97.4577,VALID,0,VALID,20.8129,VALID,188,VALID,0.543359,
2010-06-04, 01:06:04,VALID,918.531,VALID,0,VALID,97.4501,VALID,0,VALID,20.8129,VALID,188,VALID,0.104687,
2010-06-04, 01:07:04,VALID,918.561,VALID,0,VALID,97.4654,VALID,0,VALID,20.8129,VALID,188,VALID,0.550781,
2010-06-04, 01:08:04,VALID,918.577,VALID,0,VALID,97.4425,VALID,0,VALID,20.8324,VALID,188,VALID,0.283203,
2010-06-04, 01:09:04,VALID,918.559,VALID,0,VALID,97.4425,VALID,0,VALID,20.873,VALID,188,VALID,0.0515625,
2010-06-04, 01:10:04,VALID,918.564,VALID,0,VALID,97.4349,VALID,0,VALID,20.8519,VALID,188,VALID,0.637109,
2010-06-04, 01:11:04,VALID,918.527,VALID,0,VALID,97.4577,VALID,0,VALID,20.8519,VALID,150,VALID,0.644922,
2010-06-04, 01:12:04,VALID,918.451,VALID,0,VALID,97.4349,VALID,0,VALID,20.8519,VALID,150,VALID,0.597266,
2010-06-04, 01:13:04,VALID,918.454,VALID,0,VALID,97.4654,VALID,0,VALID,20.8519,VALID,150,VALID,0.710938,
2010-06-04, 01:14:04,VALID,918.443,VALID,0,VALID,97.473,VALID,0,VALID,20.873,VALID,150,VALID,0.657422,
2010-06-04, 01:15:04,VALID,918.422,VALID,0,VALID,97.4501,VALID,0,VALID,20.8129,VALID,51,VALID,1.00469,
2010-06-04, 01:16:04,VALID,918.43,VALID,0,VALID,97.4425,VALID,0,VALID,20.7934,VALID,52,VALID,0.96875,
2010-06-04, 01:17:04,VALID,918.433,VALID,0,VALID,97.4577,VALID,0,VALID,20.7739,VALID,179,VALID,0.976563,
2010-06-04, 01:18:04,VALID,918.4,VALID,0,VALID,97.4577,VALID,0,VALID,20.7739,VALID,179,VALID,0.303906,
2010-06-04, 01:19:04,VALID,918.355,VALID,0,VALID,97.4425,VALID,0,VALID,20.7934,VALID,179,VALID,0.546484,
2010-06-04, 01:20:04,VALID,918.344,VALID,0,VALID,97.4654,VALID,0.107441,VALID,20.7934,VALID,179,VALID,0.452344,
2010-06-04, 01:21:04,VALID,918.333,VALID,0,VALID,97.4425,VALID,0,VALID,20.7934,VALID,179,VALID,0.645312,
2010-06-04, 01:22:04,VALID,918.33,VALID,0,VALID,97.4501,VALID,0.107441,VALID,20.8129,VALID,179,VALID,0.407813,
2010-06-04, 01:23:04,VALID,918.295,VALID,0,VALID,97.4654,VALID,0,VALID,20.7934,VALID,179,VALID,0.598828,
2010-06-04, 01:24:04,VALID,918.276,VALID,0,VALID,97.4577,VALID,0.107441,VALID,20.7934,VALID,178,VALID,0.540625,
2010-06-04, 01:25:04,VALID,918.24,VALID,0,VALID,97.4654,VALID,0.107441,VALID,20.8129,VALID,178,VALID,0.422656,
2010-06-04, 01:26:04,VALID,918.231,VALID,0,VALID,97.4577,VALID,0,VALID,20.7934,VALID,116,VALID,0.913281,
2010-06-04, 01:27:04,VALID,918.22,VALID,0,VALID,97.4577,VALID,0,VALID,20.7934,VALID,115,VALID,0.917578,
2010-06-04, 01:28:04,VALID,918.222,VALID,0,VALID,97.4806,VALID,0,VALID,20.8129,VALID,116,VALID,0.453906,
2010-06-04, 01:29:04,VALID,918.193,VALID,0,VALID,97.4577,VALID,0,VALID,20.8129,VALID,116,VALID,0.450781,
2010-06-04, 01:30:04,VALID,918.185,VALID,0,VALID,97.4577,VALID,0,VALID,20.8324,VALID,116,VALID,0.427734,
2010-06-04, 01:31:04,VALID,918.179,VALID,0,VALID,97.4654,VALID,0,VALID,20.8519,VALID,116,VALID,0.15,
2010-06-04, 01:32:04,VALID,918.18,VALID,0,VALID,97.4577,VALID,0,VALID,20.8714,VALID,116,VALID,0.00195313,
2010-06-04, 01:33:04,VALID,918.194,VALID,0,VALID,97.4882,VALID,0,VALID,20.8925,VALID,116,VALID,0.00351562,
2010-06-04, 01:34:04,VALID,918.207,VALID,0,VALID,97.473,VALID,0.107441,VALID,20.8714,VALID,116,VALID,0.0988281,
2010-06-04, 01:35:04,VALID,918.219,VALID,0,VALID,97.4501,VALID,0,VALID,20.8714,VALID,116,VALID,0.484375,
2010-06-04, 01:36:04,VALID,918.198,VALID,0,VALID,97.4654,VALID,0,VALID,20.8519,VALID,116,VALID,0.05625,
2010-06-04, 01:37:04,VALID,918.234,VALID,0,VALID,97.4577,VALID,0.107441,VALID,20.8714,VALID,116,VALID,0.000390625,
2010-06-04, 01:38:04,VALID,918.276,VALID,0,VALID,97.4654,VALID,0,VALID,20.8714,VALID,116,VALID,0.534375,
2010-06-04, 01:39:04,VALID,918.271,VALID,0,VALID,97.4654,VALID,0,VALID,20.8324,VALID,116,VALID,0.642578,
2010-06-04, 01:40:04,VALID,918.286,VALID,0,VALID,97.473,VALID,0.107441,VALID,20.8145,VALID,116,VALID,0.787891,
2010-06-04, 01:41:04,VALID,918.283,VALID,0,VALID,97.473,VALID,0,VALID,20.7934,VALID,116,VALID,0.797656,
2010-06-04, 01:42:04,VALID,918.26,VALID,0,VALID,97.4577,VALID,0,VALID,20.7739,VALID,116,VALID,0.290234,
2010-06-04, 01:43:04,VALID,918.277,VALID,0,VALID,97.4806,VALID,0,VALID,20.7934,VALID,116,VALID,0.521094,
2010-06-04, 01:44:04,VALID,918.277,VALID,0,VALID,97.4654,VALID,0,VALID,20.8129,VALID,116,VALID,0.538672,
2010-06-04, 01:45:04,VALID,918.226,VALID,0,VALID,97.473,VALID,0.107441,VALID,20.7934,VALID,116,VALID,0.627344,
2010-06-04, 01:46:04,VALID,918.209,VALID,0,VALID,97.4654,VALID,0,VALID,20.8129,VALID,116,VALID,0.459375,
2010-06-04, 01:47:04,VALID,918.173,VALID,0,VALID,97.473,VALID,0,VALID,20.8129,VALID,116,VALID,0.300391,
2010-06-04, 01:48:04,VALID,918.159,VALID,0,VALID,97.473,VALID,0,VALID,20.795,VALID,146,VALID,0.822266,
2010-06-04, 01:49:04,VALID,918.094,VALID,0,VALID,97.4654,VALID,0,VALID,20.7739,VALID,146,VALID,0.483203,
2010-06-04, 01:50:04,VALID,918.118,VALID,0,VALID,97.4882,VALID,0,VALID,20.7544,VALID,135,VALID,1.29531,
2010-06-04, 01:51:04,VALID,918.11,VALID,0,VALID,97.4806,VALID,0,VALID,20.756,VALID,138,VALID,1.04844,
2010-06-04, 01:52:04,VALID,918.05,VALID,0,VALID,97.4882,VALID,0,VALID,20.7365,VALID,121,VALID,0.461328,
2010-06-04, 01:53:04,VALID,918.047,VALID,0,VALID,97.4654,VALID,0,VALID,20.7154,VALID,121,VALID,0.826953,
2010-06-04, 01:54:04,VALID,918.069,VALID,0,VALID,97.4806,VALID,0,VALID,20.6959,VALID,121,VALID,0.950781,
2010-06-04, 01:55:04,VALID,918.034,VALID,0,VALID,97.4806,VALID,0,VALID,20.6959,VALID,121,VALID,0.757422,
2010-06-04, 01:56:04,VALID,918.015,VALID,0,VALID,97.473,VALID,0,VALID,20.6975,VALID,120,VALID,1.01797,
2010-06-04, 01:57:04,VALID,918.023,VALID,0,VALID,97.4806,VALID,0,VALID,20.6975,VALID,120,VALID,0.858984,
2010-06-04, 01:58:04,VALID,918.034,VALID,0,VALID,97.4959,VALID,0,VALID,20.6764,VALID,120,VALID,0.809375,
2010-06-04, 01:59:04,VALID,918.012,VALID,0,VALID,97.4882,VALID,0,VALID,20.6764,VALID,120,VALID,0.441797,
2010-06-04, 02:00:04,VALID,917.997,VALID,0,VALID,97.4959,VALID,0,VALID,20.717,VALID,120,VALID,0.396875,
2010-06-04, 02:01:04,VALID,918.021,VALID,0,VALID,97.5035,VALID,0,VALID,20.6959,VALID,120,VALID,0.260938,
2010-06-04, 02:02:04,VALID,917.989,VALID,0,VALID,97.4959,VALID,0,VALID,20.6959,VALID,120,VALID,0.255469,
2010-06-04, 02:03:04,VALID,918.007,VALID,0,VALID,97.4959,VALID,0,VALID,20.6959,VALID,120,VALID,0.444922,
2010-06-04, 02:04:04,VALID,918.001,VALID,0,VALID,97.4806,VALID,0,VALID,20.7154,VALID,120,VALID,0.219922,
2010-06-04, 02:05:04,VALID,917.992,VALID,0,VALID,97.5035,VALID,0,VALID,20.7365,VALID,120,VALID,0,
2010-06-04, 02:06:04,VALID,917.975,VALID,0,VALID,97.5035,VALID,0,VALID,20.6959,VALID,120,VALID,0.560156,
2010-06-04, 02:07:04,VALID,917.983,VALID,0,VALID,97.4882,VALID,0,VALID,20.6764,VALID,120,VALID,0.0828125,
2010-06-04, 02:08:04,VALID,917.988,VALID,0,VALID,97.5035,VALID,0,VALID,20.6764,VALID,120,VALID,0.508203,
2010-06-04, 02:09:04,VALID,917.975,VALID,0,VALID,97.473,VALID,0,VALID,20.6975,VALID,120,VALID,0.369141,
2010-06-04, 02:10:04,VALID,917.985,VALID,0,VALID,97.5035,VALID,0,VALID,20.6585,VALID,120,VALID,0.44375,
2010-06-04, 02:11:04,VALID,917.973,VALID,0,VALID,97.5035,VALID,0,VALID,20.6374,VALID,120,VALID,0.646094,
2010-06-04, 02:12:04,VALID,917.953,VALID,0,VALID,97.4959,VALID,0,VALID,20.6179,VALID,120,VALID,0.696484,
2010-06-04, 02:13:04,VALID,917.952,VALID,0,VALID,97.5111,VALID,0,VALID,20.5984,VALID,120,VALID,0.533594,
2010-06-04, 02:14:04,VALID,917.932,VALID,0,VALID,97.5111,VALID,0,VALID,20.5984,VALID,120,VALID,0.900781,
2010-06-04, 02:15:04,VALID,917.937,VALID,0,VALID,97.5035,VALID,0,VALID,20.5984,VALID,120,VALID,0.732813,
2010-06-04, 02:16:04,VALID,917.978,VALID,0,VALID,97.4959,VALID,0,VALID,20.6179,VALID,120,VALID,0.473828,
2010-06-04, 02:17:04,VALID,917.975,VALID,0,VALID,97.5264,VALID,0,VALID,20.5984,VALID,81,VALID,1.01641,
2010-06-04, 02:18:04,VALID,918.016,VALID,0,VALID,97.4959,VALID,0,VALID,20.5984,VALID,71,VALID,1.1707,
2010-06-04, 02:19:04,VALID,918.039,VALID,0,VALID,97.5111,VALID,0,VALID,20.5789,VALID,71,VALID,0.869141,
2010-06-04, 02:20:04,VALID,918.062,VALID,0,VALID,97.5111,VALID,0,VALID,20.5984,VALID,71,VALID,0.739062,
2010-06-04, 02:21:04,VALID,918.094,VALID,0,VALID,97.5035,VALID,0,VALID,20.5984,VALID,71,VALID,0.908594,
2010-06-04, 02:22:04,VALID,918.087,VALID,0,VALID,97.5111,VALID,0,VALID,20.5984,VALID,71,VALID,0.8875,
2010-06-04, 02:23:04,VALID,918.074,VALID,0,VALID,97.5187,VALID,0,VALID,20.5999,VALID,71,VALID,0.942969,
2010-06-04, 02:24:04,VALID,918.019,VALID,0,VALID,97.5111,VALID,0,VALID,20.5789,VALID,71,VALID,0.857422,
2010-06-04, 02:25:04,VALID,917.961,VALID,0,VALID,97.5264,VALID,0,VALID,20.5789,VALID,71,VALID,0.755078,
2010-06-04, 02:26:04,VALID,917.952,VALID,0,VALID,97.5111,VALID,0,VALID,20.5594,VALID,70,VALID,0.880469,
2010-06-04, 02:27:04,VALID,917.939,VALID,0,VALID,97.5187,VALID,0,VALID,20.5609,VALID,70,VALID,0.7125,
2010-06-04, 02:28:04,VALID,917.904,VALID,0,VALID,97.534,VALID,0,VALID,20.5399,VALID,70,VALID,0.621484,
2010-06-04, 02:29:04,VALID,917.884,VALID,0,VALID,97.5264,VALID,0,VALID,20.5609,VALID,70,VALID,0.173828,
2010-06-04, 02:30:04,VALID,917.884,VALID,0,VALID,97.534,VALID,0,VALID,20.5399,VALID,70,VALID,0.537891,
2010-06-04, 02:31:04,VALID,917.904,VALID,0,VALID,97.5264,VALID,0,VALID,20.5594,VALID,70,VALID,0.0191406,
2010-06-04, 02:32:04,VALID,917.9,VALID,0,VALID,97.5187,VALID,0,VALID,20.5804,VALID,70,VALID,0,
2010-06-04, 02:33:04,VALID,917.924,VALID,0,VALID,97.5187,VALID,0,VALID,20.5594,VALID,70,VALID,0.508203,
2010-06-04, 02:34:04,VALID,917.936,VALID,0,VALID,97.534,VALID,0.107441,VALID,20.5789,VALID,70,VALID,0.614062,
2010-06-04, 02:35:04,VALID,917.915,VALID,0,VALID,97.5111,VALID,0,VALID,20.5804,VALID,70,VALID,0.589844,
2010-06-04, 02:36:04,VALID,917.897,VALID,0,VALID,97.534,VALID,0,VALID,20.5804,VALID,70,VALID,0.596094,
2010-06-04, 02:37:04,VALID,917.906,VALID,0,VALID,97.534,VALID,0,VALID,20.5999,VALID,70,VALID,0.671094,
2010-06-04, 02:38:04,VALID,917.873,VALID,0,VALID,97.5187,VALID,0,VALID,20.5999,VALID,70,VALID,1.13789,
2010-06-04, 02:39:04,VALID,917.907,VALID,0,VALID,97.5187,VALID,0,VALID,20.5804,VALID,70,VALID,0.58125,
2010-06-04, 02:40:04,VALID,917.931,VALID,0,VALID,97.534,VALID,0,VALID,20.5594,VALID,43,VALID,0.682422,
2010-06-04, 02:41:04,VALID,917.942,VALID,0,VALID,97.5264,VALID,0,VALID,20.5609,VALID,43,VALID,0.729297,
2010-06-04, 02:42:04,VALID,917.973,VALID,0,VALID,97.5492,VALID,0,VALID,20.5204,VALID,43,VALID,0.377734,
2010-06-04, 02:43:04,VALID,917.982,VALID,0,VALID,97.5187,VALID,0,VALID,20.5399,VALID,43,VALID,0,
2010-06-04, 02:44:04,VALID,917.977,VALID,0,VALID,97.5416,VALID,0,VALID,20.5399,VALID,43,VALID,0,
2010-06-04, 02:45:04,VALID,917.972,VALID,0,VALID,97.5416,VALID,0,VALID,20.5383,VALID,43,VALID,0.249609,
2010-06-04, 02:46:04,VALID,917.961,VALID,0,VALID,97.5264,VALID,0.107441,VALID,20.5789,VALID,43,VALID,0,
2010-06-04, 02:47:04,VALID,917.982,VALID,0,VALID,97.5264,VALID,0,VALID,20.5804,VALID,43,VALID,0,
2010-06-04, 02:48:04,VALID,918.002,VALID,0,VALID,97.534,VALID,0,VALID,20.5999,VALID,43,VALID,0,
2010-06-04, 02:49:04,VALID,918.004,VALID,0,VALID,97.534,VALID,0,VALID,20.5999,VALID,43,VALID,0.284375,
2010-06-04, 02:50:04,VALID,918.017,VALID,0,VALID,97.5264,VALID,0,VALID,20.5789,VALID,43,VALID,0.492578,
2010-06-04, 02:51:04,VALID,918.035,VALID,0,VALID,97.534,VALID,0,VALID,20.5984,VALID,43,VALID,0.354688,
2010-06-04, 02:52:04,VALID,918.022,VALID,0,VALID,97.5492,VALID,0,VALID,20.6194,VALID,43,VALID,0.51875,
2010-06-04, 02:53:04,VALID,918.05,VALID,0,VALID,97.534,VALID,0,VALID,20.5984,VALID,43,VALID,0.621094,
2010-06-04, 02:54:04,VALID,918.022,VALID,0,VALID,97.5264,VALID,0,VALID,20.5984,VALID,43,VALID,0.523047,
2010-06-04, 02:55:04,VALID,918.066,VALID,0,VALID,97.534,VALID,0,VALID,20.6194,VALID,43,VALID,0.524219,
2010-06-04, 02:56:04,VALID,918.057,VALID,0,VALID,97.534,VALID,0,VALID,20.639,VALID,43,VALID,0.340234,
2010-06-04, 02:57:04,VALID,918.084,VALID,0,VALID,97.534,VALID,0,VALID,20.5594,VALID,43,VALID,0.3125,
2010-06-04, 02:58:04,VALID,918.069,VALID,0,VALID,97.5569,VALID,0.107441,VALID,20.5594,VALID,43,VALID,0.000390625,
2010-06-04, 02:59:04,VALID,918.116,VALID,0,VALID,97.534,VALID,0,VALID,20.5594,VALID,43,VALID,0.207813,
2010-06-04, 03:00:04,VALID,918.127,VALID,0,VALID,97.5416,VALID,0,VALID,20.5789,VALID,43,VALID,0.128516,
2010-06-04, 03:01:04,VALID,918.146,VALID,0,VALID,97.5187,VALID,0,VALID,20.5789,VALID,43,VALID,0.0125,
2010-06-04, 03:02:04,VALID,918.165,VALID,0,VALID,97.534,VALID,0,VALID,20.5804,VALID,43,VALID,0.569141,
2010-06-04, 03:03:04,VALID,918.212,VALID,0,VALID,97.5111,VALID,0,VALID,20.5804,VALID,43,VALID,0.744922,
2010-06-04, 03:04:04,VALID,918.233,VALID,0,VALID,97.534,VALID,0,VALID,20.5609,VALID,43,VALID,0.962891,
2010-06-04, 03:05:04,VALID,918.303,VALID,0,VALID,97.5187,VALID,0,VALID,20.5609,VALID,43,VALID,0.764844,
2010-06-04, 03:06:04,VALID,918.317,VALID,0,VALID,97.5264,VALID,0,VALID,20.5414,VALID,93,VALID,0.784375,
2010-06-04, 03:07:04,VALID,918.284,VALID,0,VALID,97.5264,VALID,0,VALID,20.5204,VALID,93,VALID,0.976563,
2010-06-04, 03:08:04,VALID,918.243,VALID,0,VALID,97.5416,VALID,0,VALID,20.5399,VALID,93,VALID,0.248437,
2010-06-04, 03:09:04,VALID,918.204,VALID,0,VALID,97.5416,VALID,0,VALID,20.5399,VALID,93,VALID,0.00585938,
2010-06-04, 03:10:04,VALID,918.178,VALID,0,VALID,97.534,VALID,0,VALID,20.5804,VALID,93,VALID,0.179297,
2010-06-04, 03:11:04,VALID,918.165,VALID,0,VALID,97.5492,VALID,0,VALID,20.5804,VALID,93,VALID,0,
2010-06-04, 03:12:04,VALID,918.165,VALID,0,VALID,97.534,VALID,0,VALID,20.5789,VALID,93,VALID,0.540234,
2010-06-04, 03:13:04,VALID,918.171,VALID,0,VALID,97.5416,VALID,0,VALID,20.5804,VALID,93,VALID,0.791797,
2010-06-04, 03:14:04,VALID,918.184,VALID,0,VALID,97.5492,VALID,0,VALID,20.5804,VALID,93,VALID,1.09766,
2010-06-04, 03:15:04,VALID,918.178,VALID,0,VALID,97.5492,VALID,0,VALID,20.5804,VALID,93,VALID,1.15859,
2010-06-04, 03:16:04,VALID,918.179,VALID,0,VALID,97.5492,VALID,0,VALID,20.5609,VALID,93,VALID,0.972656,
2010-06-04, 03:17:04,VALID,918.145,VALID,0,VALID,97.5492,VALID,0,VALID,20.5204,VALID,93,VALID,1.1043,
2010-06-04, 03:18:04,VALID,918.076,VALID,0,VALID,97.5416,VALID,0,VALID,20.5204,VALID,93,VALID,0.861719,
2010-06-04, 03:19:04,VALID,918.052,VALID,0,VALID,97.5492,VALID,0,VALID,20.5204,VALID,93,VALID,0.766406,
2010-06-04, 03:20:04,VALID,918.023,VALID,0,VALID,97.5492,VALID,0,VALID,20.5414,VALID,93,VALID,0.932031,
2010-06-04, 03:21:04,VALID,917.973,VALID,0,VALID,97.534,VALID,0,VALID,20.5219,VALID,93,VALID,0.877734,
2010-06-04, 03:22:04,VALID,917.947,VALID,0,VALID,97.534,VALID,0,VALID,20.5024,VALID,93,VALID,1.13008,
2010-06-04, 03:23:04,VALID,917.902,VALID,0,VALID,97.5569,VALID,0,VALID,20.5024,VALID,93,VALID,0.610937,
2010-06-04, 03:24:04,VALID,917.907,VALID,0,VALID,97.5492,VALID,0,VALID,20.4813,VALID,93,VALID,0.514063,
2010-06-04, 03:25:04,VALID,917.88,VALID,0,VALID,97.5416,VALID,0,VALID,20.5235,VALID,93,VALID,0.569141,
2010-06-04, 03:26:04,VALID,917.892,VALID,0,VALID,97.5569,VALID,0,VALID,20.5219,VALID,93,VALID,0.288281,
2010-06-04, 03:27:04,VALID,917.885,VALID,0,VALID,97.5492,VALID,0,VALID,20.4829,VALID,93,VALID,0.421094,
2010-06-04, 03:28:04,VALID,917.921,VALID,0,VALID,97.5416,VALID,0,VALID,20.5024,VALID,93,VALID,0.753516,
2010-06-04, 03:29:04,VALID,917.941,VALID,0,VALID,97.5569,VALID,0,VALID,20.5024,VALID,93,VALID,0.821875,
2010-06-04, 03:30:04,VALID,917.906,VALID,0,VALID,97.5416,VALID,0,VALID,20.5204,VALID,93,VALID,0.558203,
2010-06-04, 03:31:04,VALID,917.901,VALID,0,VALID,97.5416,VALID,0,VALID,20.5204,VALID,93,VALID,0.639844,
2010-06-04, 03:32:04,VALID,917.912,VALID,0,VALID,97.5645,VALID,0,VALID,20.5219,VALID,94,VALID,0.736719,
2010-06-04, 03:33:04,VALID,917.853,VALID,0,VALID,97.534,VALID,0,VALID,20.5609,VALID,93,VALID,0.65,
2010-06-04, 03:34:04,VALID,917.85,VALID,0,VALID,97.5416,VALID,0,VALID,20.5609,VALID,94,VALID,0.7125,
2010-06-04, 03:35:04,VALID,917.798,VALID,0,VALID,97.5187,VALID,0,VALID,20.5009,VALID,94,VALID,0.795313,
2010-06-04, 03:36:04,VALID,917.764,VALID,0,VALID,97.534,VALID,0,VALID,20.5414,VALID,93,VALID,0.827734,
2010-06-04, 03:37:04,VALID,917.756,VALID,0,VALID,97.5416,VALID,0,VALID,20.5609,VALID,93,VALID,0.683203,
2010-06-04, 03:38:04,VALID,917.734,VALID,0,VALID,97.5416,VALID,0,VALID,20.5204,VALID,94,VALID,0.999219,
2010-06-04, 03:39:04,VALID,917.731,VALID,0,VALID,97.5416,VALID,0,VALID,20.5414,VALID,93,VALID,0.978516,
2010-06-04, 03:40:04,VALID,917.709,VALID,0,VALID,97.5416,VALID,0,VALID,20.5219,VALID,23,VALID,1.03086,
2010-06-04, 03:41:04,VALID,917.697,VALID,0,VALID,97.5492,VALID,0,VALID,20.5024,VALID,23,VALID,1.03672,
2010-06-04, 03:42:04,VALID,917.699,VALID,0,VALID,97.5416,VALID,0,VALID,20.5024,VALID,22,VALID,0.883203,
2010-06-04, 03:43:05,VALID,917.692,VALID,0,VALID,97.534,VALID,0,VALID,20.5219,VALID,22,VALID,0.337891,
2010-06-04, 03:44:05,VALID,917.713,VALID,0,VALID,97.5569,VALID,0,VALID,20.5219,VALID,22,VALID,0.653125,